Theta_e
352 352 352 354 355 356 356 355 353 352 352 353 353 353 353 354 357 364 370 364 355 353 355 353 353 354 353 352 351 352 353 352 353 352 351 350 349 349 348 348 348 347 347 346 345 346 345 345 346 346 347 347 346 347 347 347 347 347 347 347 344 342 341 344 344 341 343 346 347 350 345 332 331 340
353 352 351 352 355 356 356 356 355 353 353 354 353 353 354 354 354 355 361 365 358 352 355 354 354 355 353 352 351 351 352 351 351 350 349 349 348 348 347 347 348 347 347 347 346 347 346 345 346 346 348 350 350 352 352 351 352 351 352 352 350 348 344 342 345 343 341 344 346 348 349 341 329 332
352 351 349 351 354 356 355 355 356 355 355 356 355 355 354 354 355 353 355 361 358 353 355 354 353 355 353 352 352 351 351 351 350 349 348 348 347 347 346 346 347 347 347 347 347 347 346 345 346 347 348 350 351 352 353 352 353 353 353 353 352 351 349 344 343 345 343 342 344 346 348 348 337 327
354 352 349 351 355 356 357 356 356 356 355 355 355 355 354 353 355 354 353 356 356 353 354 354 354 355 353 352 353 352 350 348 348 347 347 347 346 346 346 346 346 345 345 346 347 347 346 346 347 348 349 350 351 352 353 353 354 354 353 353 353 352 352 349 345 344 345 342 342 344 346 349 346 334
355 354 353 354 356 356 357 357 357 356 355 355 354 354 354 353 354 355 355 355 355 354 353 354 354 354 354 353 352 352 349 346 346 346 346 347 347 346 347 346 345 345 345 347 348 347 347 347 347 349 350 352 353 354 354 355 355 355 355 353 353 353 352 351 348 345 345 345 342 343 345 346 349 344
356 356 355 355 356 356 357 357 356 356 355 355 355 354 354 354 353 354 355 355 355 354 354 355 354 354 354 353 353 352 348 345 346 347 347 347 347 348 348 347 347 346 347 348 348 348 348 348 348 351 353 354 355 355 355 355 355 355 355 354 353 352 350 351 351 347 345 346 344 342 343 345 347 348
355 356 356 355 354 355 356 356 355 355 355 355 356 356 355 355 354 353 354 354 355 354 354 355 355 355 355 354 354 351 346 344 347 349 349 347 346 347 347 347 347 346 348 348 349 349 349 348 349 353 355 354 354 355 354 354 354 354 355 355 353 352 350 349 350 349 347 346 346 344 343 343 345 347
356 357 356 355 354 355 356 356 355 355 356 355 356 357 355 354 354 353 353 353 354 355 355 356 355 355 355 354 353 349 343 343 346 348 348 346 345 346 347 347 347 348 349 350 350 350 349 349 352 354 354 354 354 355 355 354 354 354 353 354 355 354 351 350 349 349 348 347 347 346 344 343 343 345
356 357 356 355 356 357 357 357 357 357 357 356 356 356 355 355 354 354 353 353 354 355 356 356 355 355 355 353 351 347 343 344 345 345 346 346 345 347 347 347 349 350 351 351 351 351 350 350 353 355 354 354 355 355 355 355 353 353 353 353 354 355 353 351 349 349 349 349 348 347 346 343 342 343
356 356 357 356 356 356 357 357 358 357 357 357 356 355 355 355 354 354 354 353 354 355 355 355 356 355 353 353 349 345 343 345 345 345 346 346 345 347 348 347 349 350 351 352 352 351 351 352 354 355 354 354 355 353 353 353 352 352 353 352 352 354 354 352 350 349 349 350 349 348 347 345 342 342
357 357 358 357 356 357 357 357 357 357 356 356 355 354 354 354 354 354 353 352 353 354 355 355 354 353 353 351 347 344 344 346 347 347 348 348 347 348 349 349 349 351 352 352 352 352 352 353 354 355 355 354 353 352 351 351 352 352 353 354 353 354 354 353 351 350 349 349 350 349 348 347 343 341
357 358 358 358 357 357 357 357 357 357 356 356 355 355 354 354 354 353 353 353 353 354 355 354 353 353 351 348 346 346 347 348 349 349 349 350 350 350 351 350 351 352 352 352 353 352 352 353 353 354 355 355 352 351 350 351 352 354 354 355 355 354 355 354 353 352 350 349 350 350 349 348 346 343
357 357 358 357 357 357 357 357 357 356 356 356 355 355 354 354 354 353 353 353 353 354 354 353 351 350 348 347 348 349 351 351 350 351 350 350 352 351 351 351 352 353 353 353 353 352 353 353 354 355 355 354 351 351 352 352 353 354 354 354 354 354 354 354 353 353 352 351 350 350 350 349 348 345
357 356 356 357 357 357 356 355 356 357 357 356 356 355 355 355 354 352 352 353 353 353 353 351 348 347 347 350 351 351 353 353 353 352 352 351 352 352 352 352 353 353 354 354 354 353 353 354 354 354 354 352 351 351 353 354 353 353 352 352 353 354 353 353 353 353 354 353 352 351 350 350 349 348
358 357 356 356 356 356 355 354 355 356 356 354 354 354 354 353 351 350 352 354 353 352 352 350 348 347 348 351 353 353 353 354 353 353 353 353 352 351 352 352 353 354 355 355 355 353 353 354 353 353 352 351 350 352 353 353 352 351 351 352 353 353 352 352 353 354 354 355 354 353 352 351 351 350
357 357 356 356 355 355 354 354 353 353 351 350 350 350 350 349 349 349 351 353 353 353 351 348 347 347 349 352 354 354 354 354 354 354 354 354 353 352 352 353 354 355 355 355 355 353 353 353 352 350 351 350 351 352 352 350 351 352 353 353 352 351 350 351 353 354 354 355 355 355 354 353 352 351
357 356 355 355 354 353 353 353 352 352 351 350 350 350 350 350 351 352 353 353 353 352 349 348 349 350 352 354 355 354 354 354 354 355 355 356 356 355 354 355 355 355 354 354 354 353 352 351 350 351 351 350 351 352 350 349 350 351 349 348 349 348 349 350 352 353 354 355 355 355 355 354 353 353
357 356 355 355 354 353 351 351 352 352 351 351 351 351 352 352 353 353 353 354 354 353 352 352 353 354 353 354 355 355 355 355 355 355 356 356 357 356 355 355 354 353 352 353 353 353 351 350 350 351 350 351 351 350 348 348 347 341 339 343 347 349 349 350 352 352 353 354 356 356 356 355 354 354
357 356 355 355 354 352 348 349 350 351 351 351 351 351 351 351 351 353 354 355 356 356 356 354 352 353 352 353 354 353 354 354 354 355 356 356 356 355 354 353 352 351 351 351 353 352 349 348 349 350 350 351 351 348 345 343 339 330 331 342 348 350 351 352 352 352 352 353 355 356 356 356 355 355
354 354 355 354 353 350 347 347 348 349 349 349 349 349 348 349 352 355 355 357 357 356 356 353 352 352 350 350 351 351 352 354 354 354 354 354 353 352 352 351 350 350 350 350 350 349 347 347 349 350 349 349 350 349 342 335 330 327 332 345 351 352 353 352 351 350 351 353 354 355 356 355 355 355
349 352 353 352 350 348 347 347 347 347 348 347 347 347 347 350 354 355 356 357 355 354 354 352 350 349 349 350 351 353 353 352 352 352 351 353 353 351 351 352 349 349 350 349 346 344 345 347 348 349 348 347 350 351 339 327 327 329 337 348 351 350 349 347 342 341 342 345 349 352 353 354 353 353
349 350 351 350 348 348 347 347 347 348 348 348 348 348 348 351 354 356 356 355 353 353 351 349 348 349 350 352 351 351 350 350 351 351 350 350 349 346 346 346 346 346 347 345 341 341 346 348 347 348 349 348 350 345 331 325 329 334 342 349 345 338 338 336 332 331 331 332 335 337 340 342 343 344
349 350 349 349 349 348 348 349 349 349 349 349 350 349 350 351 353 353 353 352 352 352 348 345 345 348 349 348 347 346 348 349 348 345 342 341 340 338 338 341 344 345 340 335 338 345 347 343 340 341 345 349 348 336 324 328 333 334 342 346 337 327 328 328 327 328 327 327 327 327 328 329 329 329
350 351 351 351 351 350 350 351 350 350 350 349 350 350 351 351 351 352 352 351 349 346 344 344 345 345 344 342 340 342 345 344 341 337 335 335 334 335 338 339 341 339 330 325 335 345 341 331 328 329 332 340 342 332 325 331 332 329 333 335 329 324 325 325 326 326 326 326 327 328 330 332 333 332
349 352 353 352 352 351 351 351 351 351 350 350 351 352 351 351 351 350 347 345 343 341 342 343 342 339 338 335 336 340 343 342 338 336 334 334 334 336 337 334 330 327 323 321 327 333 330 325 325 326 325 330 333 330 329 331 330 326 326 323 321 323 323 323 325 325 324 324 324 325 327 331 334 334
349 352 354 353 352 352 351 351 351 350 350 350 350 350 350 350 348 344 341 341 342 342 342 340 337 334 333 332 334 338 340 339 336 334 333 332 333 333 331 326 322 321 321 321 322 324 325 325 326 327 327 328 329 329 330 329 326 324 324 321 320 322 322 322 322 322 322 321 321 321 322 325 327 327
348 351 352 351 351 351 350 350 350 350 350 350 350 349 349 345 340 339 343 345 344 341 338 335 332 331 330 330 330 331 332 332 330 330 329 329 329 328 325 322 320 319 320 320 321 322 323 324 324 324 324 326 328 329 329 328 323 321 321 320 320 322 322 321 321 321 320 320 319 320 320 321 322 322
347 349 348 347 347 348 346 345 345 344 343 343 344 344 343 339 338 342 345 343 339 336 333 331 329 328 327 327 327 326 326 326 326 326 327 326 325 324 323 321 319 318 318 318 318 319 320 320 321 321 320 322 326 328 327 325 321 320 320 320 320 321 321 320 321 321 320 320 319 319 319 320 319 319
345 344 341 339 338 337 334 332 332 332 332 333 336 337 336 337 341 342 339 336 334 332 329 327 326 326 325 325 325 325 325 325 325 324 324 324 323 322 321 320 318 317 316 315 315 316 316 317 318 319 318 319 323 326 325 322 320 320 320 320 320 320 320 319 320 320 319 319 319 318 318 318 317 315
341 338 334 330 327 325 326 329 332 333 335 336 337 338 338 339 339 337 334 333 331 328 326 325 325 325 324 324 324 324 324 324 324 323 322 322 322 321 320 319 318 316 314 313 312 312 313 313 313 315 315 315 320 323 322 319 319 321 320 319 319 319 319 319 319 319 318 318 317 315 315 315 313 312
331 328 326 323 321 323 329 335 337 338 339 340 340 340 339 337 334 332 332 331 329 326 325 325 324 324 324 324 323 323 323 322 322 321 321 321 320 319 319 318 316 315 314 313 312 312 312 311 311 311 311 312 317 321 321 319 319 320 320 319 318 318 318 318 317 317 317 316 315 314 313 313 311 311
327 327 326 325 325 329 335 338 338 338 339 339 338 336 333 330 329 329 329 328 326 325 325 324 323 323 323 323 322 322 321 320 320 320 320 319 318 318 317 316 314 314 313 313 313 312 311 311 310 310 309 310 313 318 319 318 318 319 320 319 317 317 318 317 316 316 316 314 314 314 313 313 311 311
329 331 332 332 333 336 338 337 336 336 335 333 331 329 327 327 327 327 326 325 324 324 323 323 323 322 322 321 321 320 319 318 318 318 318 317 317 316 316 314 313 313 313 312 312 312 311 310 310 309 309 309 311 314 316 316 316 318 318 317 316 316 317 317 316 316 315 314 314 313 313 312 312 312
328 330 332 334 336 338 337 334 331 331 330 328 326 326 325 325 325 325 325 324 323 322 322 322 322 322 321 320 319 319 318 317 316 316 316 316 315 315 314 313 312 312 312 312 311 310 310 309 309 309 308 308 309 311 313 313 314 315 315 315 315 316 317 317 317 316 314 313 313 313 312 312 311 312
327 329 331 334 336 335 332 329 328 328 327 326 324 324 323 323 324 323 323 322 322 321 321 321 321 320 320 319 318 317 316 316 315 315 315 314 314 313 313 312 311 311 310 311 310 309 308 308 308 308 309 309 309 310 310 311 313 313 314 315 315 315 316 317 316 315 314 313 313 312 312 312 312 312
326 327 328 330 332 331 328 327 326 325 324 323 323 323 322 322 322 322 321 321 321 320 320 320 319 319 318 318 317 316 316 315 315 314 314 313 312 311 311 310 310 309 308 309 308 307 307 307 308 308 308 309 309 310 310 310 311 312 314 314 314 313 314 315 315 314 313 312 312 312 312 312 312 313
324 325 325 326 326 326 325 325 323 323 322 322 322 322 322 321 321 320 320 320 320 319 319 318 318 317 317 316 316 315 315 314 314 313 311 310 310 309 308 307 307 307 306 307 307 306 306 306 307 308 308 309 309 310 309 309 309 311 313 313 312 312 313 314 314 313 312 312 311 312 312 312 313 313
323 323 323 323 323 323 323 322 321 321 321 321 321 321 321 320 319 319 319 319 318 317 317 317 316 316 315 315 315 314 313 313 312 311 310 309 308 307 306 306 305 305 305 305 305 305 306 306 306 307 308 309 309 309 309 308 309 310 311 310 310 311 312 312 312 312 311 310 311 311 312 312 313 312
321 321 321 321 321 321 321 321 320 320 320 320 320 319 318 318 318 317 317 317 317 316 316 315 315 314 314 313 313 312 312 311 310 309 308 307 306 305 304 304 304 303 304 304 304 305 305 304 305 307 308 308 308 308 308 308 309 309 309 308 309 311 312 311 311 310 310 310 310 311 312 311 311 310
319 319 319 319 319 320 320 319 319 319 319 318 318 317 317 317 317 316 316 315 314 314 313 312 312 312 311 310 310 310 309 308 307 306 305 305 304 303 303 302 302 302 303 303 304 304 304 304 304 305 306 306 307 307 307 308 308 308 308 308 309 310 310 310 309 309 309 310 310 310 310 309 308 308
317 317 317 317 317 318 318 318 318 318 317 317 316 316 316 315 314 313 313 312 312 311 310 309 309 309 308 308 307 307 307 306 305 304 304 303 303 302 301 301 301 301 302 302 303 303 303 303 304 305 305 306 306 306 307 307 307 307 307 308 309 309 308 307 307 308 309 309 309 308 307 307 307 308
316 315 315 315 315 315 315 316 316 316 315 315 315 314 314 313 312 311 310 310 309 309 308 307 306 306 305 305 305 304 304 303 303 302 302 301 301 301 300 300 300 301 301 302 302 302 303 304 304 304 304 305 305 305 306 307 307 307 307 308 309 308 306 306 307 307 308 307 306 305 306 307 307 308
315 314 314 314 314 314 314 314 314 314 314 313 313 312 312 311 310 309 308 308 307 306 305 305 304 303 303 302 302 302 302 301 301 301 300 300 299 299 299 299 300 300 301 302 302 303 303 303 303 303 304 304 304 305 306 306 307 307 308 309 309 308 307 307 307 307 306 305 305 305 306 307 307 308
313 313 313 313 313 313 313 312 312 312 312 312 311 311 310 309 308 307 306 305 304 303 303 303 302 301 301 301 301 301 300 300 299 299 298 298 298 298 298 299 300 301 301 301 302 303 303 303 303 304 304 304 304 305 306 306 307 308 308 309 308 308 308 308 307 306 305 305 305 306 307 307 308 308
311 311 311 311 311 311 311 311 311 311 311 310 310 309 308 307 306 305 304 303 302 301 301 301 300 300 300 300 299 299 299 298 298 298 297 297 297 297 298 299 300 301 301 302 302 303 303 303 303 304 304 304 305 306 306 307 307 308 308 308 308 308 307 307 306 305 305 306 306 307 307 308 308 309
Wind_Speed
6 6 5 4 3 2 3 3 3 2 2 3 4 5 4 0 0 1 2 3 3 4 8 8 9 14 15 13 12 10 10 11 12 13 14 14 15 15 16 17 16 16 16 17 17 19 21 22 23 20 19 18 17 16 17 17 17 17 17 17 17 15 14 13 12 9 7 5 3 3 4 4 2 5
7 7 6 5 4 3 2 3 3 3 2 3 4 4 4 3 3 2 2 3 3 5 8 9 10 14 15 14 13 12 12 13 14 14 14 15 16 16 16 16 16 16 16 16 17 18 20 22 23 22 22 20 18 19 19 18 17 16 17 18 17 15 14 13 12 10 7 6 4 3 2 3 3 4
7 7 7 6 4 4 4 4 4 5 4 4 4 4 4 5 6 6 4 2 4 7 10 12 12 13 14 14 14 14 14 14 15 15 16 16 16 16 16 16 15 15 15 15 16 17 20 23 24 24 23 21 20 20 20 18 17 16 16 17 17 16 14 12 11 10 8 6 5 4 3 3 3 3
7 7 7 6 5 4 4 5 6 7 7 7 7 7 7 6 7 8 7 5 7 11 11 12 12 12 13 13 14 15 15 15 16 17 17 16 15 15 15 14 14 14 14 14 15 18 21 24 25 25 24 22 20 20 19 18 16 15 15 15 15 16 16 12 10 9 8 6 5 5 4 4 3 3
8 8 8 8 7 5 6 6 7 8 8 8 8 7 7 7 7 8 8 8 8 11 11 11 11 10 12 13 13 15 17 17 16 17 17 16 14 14 14 15 16 17 16 15 16 20 24 26 26 25 23 21 19 18 17 16 14 13 13 13 14 15 15 12 9 8 8 7 5 5 5 5 5 4
8 9 9 9 8 7 7 7 7 8 7 7 7 6 5 6 5 7 9 8 8 10 12 11 10 10 12 13 13 16 18 17 16 15 15 14 13 14 15 16 18 19 17 16 18 23 26 27 26 23 20 19 19 19 18 17 15 14 13 13 14 14 13 11 8 6 6 6 5 5 6 6 6 6
9 10 10 10 9 8 9 9 9 8 8 8 7 6 5 5 5 6 9 9 9 10 12 11 11 12 12 13 14 17 17 15 13 13 13 13 14 14 15 17 18 18 17 17 20 24 26 27 24 20 18 19 19 19 19 19 17 16 15 14 14 15 14 12 8 5 5 6 5 5 6 7 7 7
9 9 9 9 9 9 10 11 11 10 10 9 7 6 6 7 8 8 9 10 10 11 11 12 13 13 13 14 16 17 17 14 12 13 13 15 16 15 16 17 17 17 17 18 21 24 26 25 21 18 17 18 18 17 18 20 20 18 16 15 15 15 14 13 10 7 5 6 5 5 5 6 8 8
10 9 9 8 8 9 11 11 11 11 10 9 7 8 8 9 10 10 10 10 10 11 12 13 14 13 13 16 17 17 17 16 15 15 15 16 17 18 18 18 19 19 19 19 21 25 26 23 19 17 16 17 17 17 18 20 21 19 18 16 15 14 12 12 11 8 6 6 6 6 6 6 7 8
12 11 10 9 8 10 11 11 11 11 10 10 10 10 10 9 9 10 10 10 10 11 12 13 14 13 14 16 18 17 17 18 17 17 18 18 18 19 20 21 22 21 20 19 22 25 25 21 18 17 16 15 16 18 19 20 20 19 19 17 16 15 12 10 10 8 6 6 7 7 7 7 7 8
13 12 12 11 10 11 11 11 11 11 11 12 12 12 11 11 11 11 12 11 11 12 12 12 12 13 14 16 17 17 17 17 16 16 19 21 20 21 22 24 23 21 20 21 23 25 23 19 17 17 15 14 17 20 19 18 17 17 18 17 16 14 12 10 10 9 7 5 6 8 8 8 8 8
13 13 13 12 12 12 13 13 12 11 12 13 13 13 13 13 13 13 13 13 12 12 11 11 12 13 15 16 16 17 17 17 17 16 17 20 21 22 23 23 21 20 20 23 25 25 22 20 19 17 14 15 19 20 19 16 15 15 16 16 15 14 13 12 11 9 8 6 6 7 8 8 8 8
14 14 14 14 14 14 14 14 13 13 12 12 12 12 12 13 14 14 14 13 13 12 11 12 13 13 15 16 16 16 16 16 17 16 15 17 20 23 23 22 18 17 20 24 25 24 21 20 19 17 16 18 20 20 17 15 14 14 15 14 14 14 14 14 13 11 9 8 7 7 8 8 8 8
16 16 16 15 14 14 14 13 13 12 12 12 12 13 13 13 14 14 14 14 14 13 12 12 13 12 14 15 15 16 16 16 15 15 15 17 20 22 22 20 17 17 20 22 24 23 20 19 19 18 18 20 20 18 16 15 14 15 15 14 14 14 15 15 15 14 12 10 9 8 8 8 8 9
18 17 17 16 15 15 14 13 12 12 12 12 13 13 13 13 13 13 13 14 14 13 12 12 11 11 13 15 16 15 14 14 14 14 15 16 18 18 17 16 17 19 19 19 21 22 19 17 19 19 19 19 19 17 15 15 15 15 14 13 13 13 14 14 14 14 13 11 10 9 9 9 9 9
20 19 18 17 17 15 14 13 12 11 10 9 9 10 11 11 11 11 11 12 13 14 13 12 12 12 13 14 14 12 12 12 12 13 13 13 14 14 13 14 17 19 17 16 19 20 18 17 20 20 19 19 17 14 15 17 16 15 15 13 13 13 13 13 13 13 13 12 11 10 9 10 10 9
21 20 20 19 17 14 14 13 12 11 11 10 10 11 10 10 9 9 9 10 13 14 13 12 11 10 12 13 11 8 8 10 11 12 12 12 11 12 12 14 16 17 15 15 17 17 17 19 21 20 19 18 14 13 16 19 17 16 17 16 14 14 12 11 11 12 13 12 11 10 9 9 9 9
22 21 21 19 17 14 13 12 12 12 12 11 11 9 8 8 7 8 8 9 11 12 11 9 8 7 8 10 10 7 6 9 10 11 12 12 10 10 10 12 13 13 14 14 13 13 17 21 21 20 20 17 12 14 18 19 18 19 20 19 17 15 13 12 12 12 12 12 11 10 9 8 7 7
22 22 21 20 18 14 12 10 10 10 10 10 10 9 7 7 7 8 8 8 9 9 8 8 8 7 7 8 10 9 9 10 10 10 10 10 9 9 10 11 12 12 12 13 12 12 17 21 21 21 20 15 11 16 20 19 20 22 21 19 18 17 16 15 14 13 12 12 12 11 10 10 10 9
22 22 21 19 17 15 13 12 11 11 11 10 10 9 7 7 6 6 6 6 6 7 8 8 9 9 9 10 10 10 9 9 8 8 9 8 8 10 11 10 12 13 11 13 15 15 17 19 19 19 18 14 11 16 21 21 21 23 21 18 18 18 17 17 16 15 14 12 12 12 12 12 13 13
20 21 21 19 18 17 15 14 13 12 12 11 10 9 8 7 7 6 6 6 6 5 6 6 6 7 8 7 6 6 6 7 7 8 8 7 8 10 9 8 11 12 11 13 17 16 15 17 18 17 17 13 10 14 21 22 22 22 19 18 18 18 18 18 18 17 17 15 13 12 12 12 12 13
20 19 20 20 20 18 16 14 13 12 12 11 11 11 10 9 9 8 8 7 6 5 4 3 2 2 2 1 2 3 4 5 5 6 7 7 7 8 7 7 8 8 12 15 17 14 12 15 17 17 17 11 8 13 20 22 22 22 19 17 18 19 19 18 20 20 19 18 16 15 13 13 12 12
18 19 19 20 19 17 16 14 13 12 11 10 10 10 11 11 10 10 9 8 7 5 4 2 1 2 3 3 3 3 4 5 6 9 10 10 9 8 8 9 7 5 11 18 16 10 11 15 16 16 14 7 6 15 21 20 20 21 19 17 19 20 20 18 20 21 21 21 20 18 17 16 15 14
18 20 20 19 18 17 16 14 11 10 9 9 9 9 9 10 10 9 8 8 6 5 2 2 4 6 5 5 5 6 7 9 10 12 12 11 10 9 10 12 12 9 13 20 15 7 10 15 15 15 13 6 6 15 18 17 18 21 21 20 20 21 21 20 20 22 22 22 22 21 20 20 19 18
21 23 23 21 19 17 15 13 11 10 9 9 10 10 8 8 8 7 7 6 4 4 6 8 9 8 7 7 7 8 9 10 10 10 10 10 9 10 11 15 17 15 17 21 17 11 13 17 17 16 15 10 9 14 15 14 17 21 21 21 22 23 23 22 22 22 22 22 22 22 21 22 22 21
26 27 25 22 20 17 14 12 10 9 9 10 10 10 9 8 8 6 5 5 7 10 12 13 11 10 9 9 10 10 10 10 10 10 11 11 11 13 16 17 19 19 19 20 20 17 17 19 18 17 17 13 11 14 14 13 17 21 21 19 21 24 25 24 24 25 24 24 23 22 21 20 20 21
29 29 25 20 17 15 13 11 10 9 10 11 11 11 9 8 7 6 7 9 13 15 15 14 13 13 12 12 13 13 12 12 12 12 13 13 14 15 16 17 19 19 19 19 20 19 18 19 19 18 18 16 13 14 14 13 17 23 23 20 19 22 26 26 26 27 26 25 25 23 21 21 21 21
26 23 21 18 16 15 13 11 10 9 10 11 11 11 9 8 8 10 12 15 17 17 16 15 16 16 15 14 14 14 12 12 11 11 12 12 13 13 14 16 17 18 18 19 20 20 19 19 18 18 19 18 15 12 11 13 18 23 25 23 19 20 26 28 27 28 28 26 26 26 25 25 25 25
23 20 20 18 15 13 11 9 9 9 9 9 9 9 10 10 12 15 17 18 18 17 18 18 18 17 16 15 14 11 9 8 8 9 9 9 9 10 11 12 15 17 19 19 20 20 20 20 19 17 17 18 17 13 11 14 18 20 24 26 21 19 24 28 27 27 28 28 28 28 27 27 27 27
20 18 17 15 12 10 9 9 9 9 9 9 9 9 11 14 17 19 19 18 18 19 19 18 18 17 15 13 11 8 7 8 9 10 9 8 9 9 9 10 13 17 18 19 21 21 20 21 20 19 17 16 15 14 12 15 18 18 21 25 23 19 23 27 26 26 28 28 27 28 27 26 27 28
9 9 9 10 11 10 11 11 11 10 10 10 11 13 16 19 20 19 18 17 18 19 18 17 16 15 12 10 9 8 9 11 12 11 10 11 12 12 10 11 15 17 18 19 21 22 22 22 22 21 20 17 14 13 13 14 17 18 18 23 24 21 22 26 26 26 27 27 27 28 27 26 28 29
4 5 8 11 13 14 14 13 13 13 14 15 18 20 21 21 21 20 18 18 18 17 16 15 14 12 10 10 10 11 12 13 13 11 11 12 14 13 13 14 17 18 19 20 22 22 23 24 24 22 20 16 13 13 14 14 16 18 18 21 24 23 21 24 26 26 26 27 28 27 27 27 29 30
5 7 10 13 15 16 16 18 19 20 21 22 23 23 23 22 21 19 18 18 17 15 14 13 12 11 12 13 13 13 14 15 13 12 12 13 13 13 14 16 17 17 19 20 21 22 23 25 25 23 21 17 12 11 14 16 18 19 19 21 24 24 22 23 24 24 25 27 27 27 27 27 29 29
5 8 10 13 16 18 20 22 23 24 25 25 24 23 22 21 20 18 17 17 16 14 13 13 13 13 14 14 13 13 14 14 14 13 13 13 13 14 15 16 16 16 18 19 19 22 24 26 27 24 21 19 15 11 12 16 19 20 20 21 23 25 24 23 23 23 23 24 25 26 27 27 28 28
7 8 10 13 16 20 22 23 24 24 25 25 24 22 21 20 18 18 17 15 14 13 13 14 14 13 14 14 13 13 13 13 13 13 12 13 13 14 14 14 15 16 17 17 18 21 24 26 27 25 21 19 16 13 13 16 18 19 21 22 23 24 24 23 22 22 22 22 23 24 25 26 27 27
12 13 14 15 17 20 22 22 22 23 23 23 23 22 21 19 18 17 17 14 13 13 13 14 14 14 13 13 13 12 12 11 12 12 12 13 13 13 13 14 14 15 16 16 17 20 22 23 24 22 19 15 11 9 11 15 18 18 20 22 23 24 24 23 21 21 21 22 23 23 23 23 25 26
18 18 19 19 18 20 21 21 22 22 22 21 21 20 20 19 18 17 16 14 13 14 14 14 14 14 12 11 11 11 11 11 11 11 12 12 12 13 14 14 13 14 16 16 16 18 20 20 20 20 16 11 6 5 10 16 19 17 17 21 24 24 25 25 24 23 23 23 24 24 24 24 25 25
19 20 21 21 20 21 21 21 21 21 20 20 20 20 20 19 18 17 15 14 14 14 14 14 14 13 11 10 10 10 9 9 9 10 11 12 13 14 15 14 14 15 16 16 16 17 18 18 19 19 16 10 5 5 10 17 20 17 15 18 22 23 23 25 25 25 25 26 25 25 25 23 23 23
19 20 21 21 20 21 21 21 21 20 20 20 20 20 19 19 17 16 15 15 15 14 13 13 13 12 11 10 9 9 9 9 9 10 11 12 13 14 14 14 15 15 16 16 16 16 17 17 17 18 17 14 11 12 14 18 18 17 16 17 19 20 22 23 23 24 25 26 27 26 24 23 22 23
19 20 20 20 20 20 20 20 19 19 19 19 18 18 18 17 16 16 15 15 14 14 14 13 12 11 11 10 9 8 9 10 10 11 12 13 13 14 14 14 14 15 15 15 15 15 17 17 16 16 16 15 14 15 16 15 15 16 19 18 17 18 19 21 22 24 24 24 26 26 24 25 25 25
19 19 19 19 19 19 19 19 18 18 18 17 17 17 16 16 16 16 15 15 14 13 13 13 12 11 11 10 9 9 10 11 11 12 13 14 15 15 15 15 16 16 15 15 15 16 16 16 15 14 13 13 14 15 14 12 13 17 21 21 19 19 19 20 22 22 22 24 27 26 24 24 24 23
18 19 18 18 18 18 17 17 16 16 16 16 16 15 15 15 15 15 14 13 12 12 12 12 11 11 11 11 10 10 11 12 13 14 14 15 16 17 16 15 15 14 13 14 14 15 15 14 14 14 14 15 16 16 13 12 14 19 21 21 20 20 20 20 19 18 18 23 26 25 24 23 20 18
16 16 16 15 15 15 15 14 14 14 13 13 13 13 13 13 13 12 12 11 11 10 10 10 10 10 11 11 11 11 12 13 14 15 15 16 16 15 15 14 12 11 12 12 13 14 15 14 14 15 15 15 16 15 14 14 16 18 19 19 19 21 21 20 19 18 19 22 23 22 21 21 18 16
12 13 13 12 12 12 12 11 11 11 11 11 11 10 10 11 11 10 10 10 10 10 10 10 10 10 11 12 12 13 13 14 15 15 15 15 14 13 13 13 12 12 12 13 15 16 16 15 15 16 16 16 16 15 14 15 15 16 17 19 20 22 23 23 22 22 23 24 24 22 21 21 18 17
9 10 10 9 9 9 9 9 9 9 9 9 9 9 9 9 9 9 9 9 9 10 10 10 11 11 12 13 14 14 14 14 14 14 14 13 13 12 11 11 12 13 13 14 17 18 18 17 17 16 16 17 17 16 15 16 16 17 18 20 21 22 23 23 23 24 25 25 25 23 21 20 18 16
Wind_Direction
288 289 282 284 305 334 354 345 324 299 301 319 330 331 333 324 194 329 321 307 287 320 336 335 337 345 348 345 343 341 340 342 342 339 335 335 338 340 343 345 346 350 355 355 352 348 348 350 353 357 1 2 360 0 2 357 349 347 349 346 340 331 326 330 338 336 324 317 312 318 329 314 239 179
290 291 280 271 277 287 306 318 299 276 282 303 315 326 317 291 260 230 243 283 282 304 322 325 330 340 346 349 352 356 356 356 354 348 343 341 341 340 342 344 344 345 349 348 343 341 346 353 356 358 358 360 359 357 356 352 348 349 350 348 346 339 327 320 325 333 329 317 305 284 296 311 274 208
290 291 279 265 264 272 281 292 290 283 284 292 304 320 316 297 280 267 242 237 288 301 313 322 333 341 346 351 358 2 3 3 359 355 351 347 345 344 344 346 347 347 349 348 344 345 352 355 355 353 351 349 348 348 348 346 344 344 343 343 345 344 336 321 314 319 324 317 305 281 257 273 282 241
287 291 279 262 257 268 274 278 288 288 286 285 290 302 311 303 287 274 248 229 276 299 313 325 338 347 347 351 359 359 358 357 355 356 356 353 351 353 354 357 359 0 358 353 351 353 356 356 353 349 346 345 344 344 345 345 344 341 338 337 342 343 339 329 312 307 313 314 305 288 260 244 258 258
282 283 276 262 255 266 271 271 285 291 287 285 284 287 300 301 288 274 256 247 275 300 316 328 338 346 345 348 356 354 352 352 354 359 5 6 9 10 9 8 6 4 2 358 358 359 359 357 351 348 349 352 355 356 355 354 353 348 341 339 342 341 337 330 315 299 301 305 302 291 272 248 242 251
280 277 273 265 257 264 268 267 281 290 288 294 289 279 288 298 291 276 267 260 268 291 309 321 332 342 343 342 347 349 349 351 356 4 10 12 13 9 2 358 356 357 360 360 0 1 360 357 351 350 355 1 5 7 5 3 1 357 351 348 349 349 345 337 323 303 292 297 299 293 279 259 243 242
276 276 276 272 263 263 266 267 276 283 289 299 294 272 272 285 284 277 273 268 267 281 298 311 322 332 336 335 339 343 345 348 355 2 3 360 358 353 347 344 344 350 356 358 359 0 360 357 352 352 360 5 6 10 13 15 12 8 2 355 353 358 1 356 344 323 297 293 296 296 286 268 250 242
266 272 275 275 270 269 272 274 277 281 288 295 288 271 274 283 283 281 278 278 276 276 285 299 312 323 327 329 334 339 341 344 349 351 349 347 349 349 345 342 343 348 353 355 357 359 358 356 353 354 0 4 8 12 18 18 14 11 8 1 355 358 1 1 356 343 320 304 296 297 294 276 258 246
259 265 268 269 269 274 280 282 282 285 288 288 284 281 286 290 288 283 281 284 282 277 280 292 305 315 319 324 330 336 339 341 344 345 344 343 346 346 345 346 348 350 352 353 354 355 356 355 356 359 2 5 11 15 13 10 8 7 6 4 359 356 355 355 355 350 335 319 307 300 297 287 267 251
259 262 265 266 264 265 273 279 280 283 287 287 284 283 286 290 288 280 277 281 281 279 283 289 298 308 315 321 327 332 336 337 339 342 341 339 342 343 342 344 346 349 351 351 351 353 353 354 357 1 2 2 7 8 3 1 3 3 2 2 358 353 350 349 351 349 338 325 317 308 301 296 281 261
258 260 262 263 258 254 260 268 273 279 284 284 282 280 282 287 288 284 280 278 277 278 281 284 291 304 313 317 322 328 334 336 340 343 338 333 337 341 340 341 343 346 348 346 347 350 352 352 355 359 360 358 358 358 355 356 0 3 4 3 359 353 348 343 342 342 335 321 313 310 306 302 294 277
253 256 257 257 255 255 258 262 266 271 275 277 277 275 277 281 284 287 285 281 276 273 274 282 294 304 309 314 321 328 335 338 340 343 335 327 331 336 337 340 344 346 346 342 343 349 351 349 353 358 359 358 357 356 355 356 360 2 3 3 2 358 353 347 341 337 330 314 299 300 303 303 301 292
249 252 254 254 258 261 263 264 265 266 268 272 275 275 276 279 281 284 284 279 272 268 271 286 299 306 309 317 325 328 333 335 334 338 336 328 330 335 336 342 349 348 343 339 339 347 351 350 353 359 358 357 359 360 0 2 3 2 359 357 357 355 353 350 345 339 330 313 292 285 291 297 300 298
252 255 255 257 261 264 264 264 263 263 265 269 272 277 280 282 283 283 281 276 269 265 274 291 303 305 308 317 324 323 328 334 334 338 338 331 333 337 337 339 346 347 343 338 337 343 351 353 353 356 356 355 359 6 12 12 6 359 353 350 352 353 352 350 347 343 336 322 301 283 279 286 293 297
256 256 256 256 257 258 259 260 262 264 266 267 268 271 274 278 282 280 275 271 267 267 276 290 297 297 303 315 323 325 330 336 337 339 339 335 336 338 335 330 334 341 345 340 334 339 353 358 352 353 355 355 0 13 19 15 6 1 359 360 2 1 357 355 352 347 341 332 317 297 281 277 281 288
258 258 257 255 255 257 259 262 263 262 261 263 266 267 268 275 282 280 272 267 266 271 279 287 291 297 305 312 320 329 334 336 338 341 343 343 339 336 329 321 325 335 345 341 332 338 355 0 352 354 360 360 5 18 20 14 13 15 17 15 10 6 2 1 1 357 351 343 332 316 296 281 275 277
256 258 258 257 258 261 259 255 251 247 249 258 268 269 269 275 281 280 271 261 262 270 278 284 290 304 313 313 316 329 336 334 337 339 339 341 340 333 328 324 326 335 344 342 336 339 353 359 354 358 4 5 12 22 16 15 21 23 21 16 10 8 7 7 8 7 2 355 343 331 317 300 285 276
254 257 257 259 262 260 251 243 239 241 247 257 262 261 262 269 274 277 273 263 262 264 265 270 281 296 309 309 310 321 326 324 327 328 330 336 336 330 330 328 329 337 347 351 346 341 350 358 356 357 3 8 21 25 17 18 24 21 20 20 19 18 19 17 14 11 8 5 359 350 341 334 321 304
254 255 257 260 259 249 239 237 237 239 244 248 248 250 258 270 274 275 275 270 264 258 253 264 282 290 291 295 301 306 309 312 318 323 327 332 330 330 337 338 337 344 357 7 5 346 346 356 356 354 360 9 25 25 19 20 22 18 20 25 28 30 30 28 25 19 12 9 8 7 8 8 8 5
254 254 255 256 248 236 234 238 236 236 240 243 247 251 257 264 265 263 261 259 261 265 270 277 284 287 287 293 300 304 306 312 319 322 324 328 333 341 351 349 344 351 7 18 11 350 340 352 356 352 356 7 22 19 16 19 20 17 21 28 31 34 37 37 37 33 27 20 13 12 16 18 18 19
257 253 248 243 236 230 232 233 233 236 241 246 251 255 253 247 244 240 236 239 251 271 288 292 287 285 286 293 302 308 318 325 325 326 330 339 349 356 1 347 339 356 18 14 359 344 337 353 1 354 354 6 18 11 11 17 17 15 23 33 34 35 39 41 42 39 36 34 29 25 25 24 21 19
253 243 236 232 229 229 229 229 231 237 242 247 252 254 249 235 224 222 225 234 247 264 286 290 277 283 307 351 356 346 349 345 343 355 6 12 14 16 14 350 337 6 27 6 346 337 348 5 7 356 351 2 16 8 12 17 15 16 26 35 36 35 34 35 36 34 33 33 32 30 28 24 21 16
237 225 223 223 222 224 225 225 230 235 240 248 250 249 245 233 221 221 227 236 247 259 272 272 205 121 96 86 75 64 57 54 52 49 46 43 40 39 32 16 5 18 19 4 348 339 1 14 16 8 1 357 351 2 13 19 18 22 30 32 32 30 27 27 29 28 29 29 28 28 26 22 17 11
226 218 219 221 218 219 223 224 227 232 236 240 239 238 239 234 225 221 225 232 240 246 237 145 129 122 115 106 98 94 90 81 73 66 61 54 48 49 52 51 54 50 24 15 12 13 21 25 28 26 22 7 333 353 9 20 23 26 29 27 25 22 19 20 23 23 26 29 29 30 30 28 25 20
226 220 218 218 217 217 221 223 225 228 228 227 226 227 228 230 227 223 222 222 209 169 141 132 127 119 110 99 91 92 92 85 74 66 61 52 49 59 69 72 67 54 34 29 33 42 40 32 28 25 23 17 353 352 5 19 24 24 26 26 25 22 19 19 19 18 20 23 25 28 30 31 31 29
223 221 217 213 213 214 218 222 224 225 224 220 221 223 223 223 222 216 206 180 149 138 134 129 119 106 95 88 83 84 85 77 68 65 67 66 69 74 75 72 66 56 44 38 38 42 44 38 31 26 21 14 1 2 11 18 16 16 19 24 26 25 22 20 18 17 17 17 19 22 24 26 28 27
212 214 211 206 205 207 210 215 217 218 219 216 217 222 222 219 212 194 168 151 142 136 130 121 107 97 91 86 83 81 80 78 74 75 79 80 81 81 75 69 66 60 52 45 41 41 44 43 39 32 24 16 9 12 18 14 8 11 14 20 27 27 23 21 20 18 16 15 15 15 15 17 16 16
210 201 196 194 195 196 197 200 202 208 214 214 215 217 213 201 185 168 155 148 141 132 122 111 102 95 91 86 83 81 81 82 81 78 81 82 80 77 72 66 63 58 50 44 41 39 39 39 37 33 29 24 19 17 15 8 9 14 14 14 22 27 22 20 20 18 16 14 14 13 13 13 11 9
208 197 190 186 185 186 187 187 190 196 198 196 196 197 190 177 167 159 151 144 136 124 115 109 103 96 90 86 85 83 80 79 73 69 72 75 69 65 62 58 56 51 46 41 38 36 35 34 31 27 26 27 24 21 17 8 9 17 17 12 14 19 18 17 18 17 14 12 12 13 13 12 10 8
191 190 183 174 171 176 177 174 174 173 170 170 173 175 171 165 160 155 150 142 131 120 114 109 103 98 94 92 87 79 67 63 62 58 57 56 53 45 37 39 46 45 42 38 34 31 30 29 26 20 17 19 21 21 19 10 7 14 19 15 11 9 10 12 14 13 10 8 8 9 10 11 10 8
177 177 170 165 167 170 168 164 163 161 162 164 163 160 159 157 153 151 146 138 128 120 115 111 106 103 101 95 83 74 70 72 71 64 56 53 50 40 27 31 37 35 31 29 27 24 22 20 18 16 13 11 10 11 13 9 4 4 10 13 10 4 3 6 7 7 4 2 2 5 8 9 9 8
159 165 171 171 169 166 161 156 154 152 153 153 151 149 148 147 144 141 137 130 123 120 118 115 112 108 101 94 90 88 86 83 77 68 61 57 52 43 36 39 38 30 23 21 19 17 15 13 11 12 13 10 5 4 5 5 3 2 2 4 3 0 1 3 1 359 359 358 360 3 5 5 5 6
161 166 168 164 159 155 150 146 143 143 142 141 140 141 141 139 137 135 131 125 121 121 119 116 113 110 105 101 100 96 89 83 76 67 61 56 50 44 43 46 43 32 24 22 18 12 9 7 6 7 11 13 16 16 11 5 4 5 2 356 353 353 356 358 355 355 359 359 358 359 359 359 2 3
146 158 162 159 157 153 147 142 139 139 138 137 135 135 135 135 133 130 126 122 120 117 115 113 112 112 109 106 102 94 87 82 74 65 59 53 47 45 45 45 40 31 25 22 16 9 5 3 3 5 8 13 20 33 27 10 3 2 359 354 351 349 349 351 352 356 1 1 358 355 352 353 358 1
110 123 132 141 148 149 144 140 138 137 137 135 132 131 130 130 129 126 121 120 119 115 113 113 112 111 108 104 98 90 84 78 70 61 54 48 44 44 45 42 35 28 24 20 13 7 5 3 3 4 4 6 11 22 27 18 6 356 349 350 353 352 349 349 351 355 359 0 358 353 347 346 351 357
91 95 102 111 126 135 134 133 134 135 133 132 131 130 127 124 124 122 120 121 121 118 115 114 111 108 106 102 96 87 78 70 63 55 48 44 41 38 37 36 28 21 18 15 9 6 6 6 6 4 359 358 1 4 4 6 7 359 348 348 352 353 351 350 352 355 358 358 355 351 345 339 341 350
87 90 95 99 109 118 121 124 127 127 126 128 129 127 125 123 122 122 124 126 122 117 115 112 110 107 105 100 93 84 74 65 59 53 46 40 34 29 26 25 19 12 10 8 6 5 5 7 8 5 358 351 352 344 337 345 358 7 1 352 350 351 353 353 352 353 355 354 352 349 343 336 337 345
88 90 94 96 102 108 112 117 120 120 121 124 125 123 123 123 123 125 127 125 121 117 115 113 111 108 104 96 88 82 75 64 55 48 40 30 25 22 20 14 8 4 2 0 1 3 4 5 5 4 359 349 338 330 327 332 343 358 4 355 349 350 354 355 353 352 351 349 346 345 342 339 339 342
90 91 94 97 101 105 109 112 116 117 119 122 123 124 124 124 124 126 125 122 120 119 116 113 111 108 102 94 85 78 71 59 48 39 32 24 19 18 13 6 0 358 356 355 356 358 0 2 1 357 351 342 331 327 324 324 330 343 354 357 357 356 355 356 354 350 347 344 342 342 343 342 340 340
93 94 95 98 102 106 110 112 115 118 120 121 123 124 124 123 122 121 119 118 117 114 110 106 104 101 95 86 78 69 60 52 43 33 24 18 14 12 8 1 357 356 353 352 353 354 356 358 357 350 344 340 338 336 335 331 331 339 348 358 7 5 358 355 353 348 344 344 345 344 343 342 340 340
94 94 95 98 102 106 109 112 116 119 120 121 122 121 121 120 117 114 113 113 110 105 100 94 88 84 79 70 59 51 44 40 33 23 15 10 6 4 1 358 355 355 353 349 348 350 354 357 357 354 351 350 351 350 349 344 339 339 344 353 2 2 356 353 352 349 346 346 345 341 339 339 338 339
95 93 93 95 98 101 104 108 112 115 117 118 119 120 118 117 115 112 110 106 101 96 90 83 75 69 63 56 46 37 31 26 20 13 7 3 358 355 354 354 353 352 350 347 346 350 355 360 2 2 0 1 360 356 348 340 334 333 337 344 349 351 351 352 352 351 346 343 341 338 336 337 337 338
97 96 95 95 96 96 97 100 104 108 113 114 116 118 118 116 112 109 103 96 91 86 80 73 65 56 48 43 35 25 19 15 10 5 1 357 355 352 351 352 353 351 349 348 350 354 359 3 5 3 1 0 358 348 334 328 326 324 325 330 334 337 343 348 349 346 342 341 344 344 342 338 334 331
100 99 98 97 96 96 95 96 100 105 110 113 113 113 112 109 103 97 92 87 80 73 65 57 48 39 31 24 17 12 7 4 0 357 353 350 350 350 350 352 354 354 353 352 353 356 359 0 1 360 355 349 344 336 327 324 324 323 324 328 331 335 341 345 345 343 342 344 349 351 350 348 345 340
102 102 100 96 94 94 93 95 100 106 111 115 115 112 109 104 96 88 81 73 66 59 50 41 32 24 16 9 4 360 356 351 347 343 342 342 345 348 352 356 355 353 355 354 352 352 353 354 353 352 347 341 338 336 333 330 329 328 330 332 334 337 341 343 342 341 340 344 351 355 355 356 358 355